This is the latest recevied weather packets stored in our database for station/object N3WGC-14. If no packets are shown the sender has not sent any weather packets the latest 10 day(s).
| Time | Temp. | Humidity | Pressure | Rain* | Wind** | Luminosity | Snow |
|---|---|---|---|---|---|---|---|
| 1787608355 | 25° C | 71% | 1014.2 hPa | 0 mm | - | - | - |
| 1787608055 | 25° C | 71% | 1014.3 hPa | 0 mm | - | - | - |
| 1787607755 | 25.56° C | 69% | 1014.3 hPa | 0 mm | - | - | - |
| 1787607455 | 26.11° C | 68% | 1014.3 hPa | 0 mm | - | - | - |
| 1787607155 | 26.67° C | 68% | 1014.4 hPa | 0 mm | - | - | - |
| 1787606855 | 26.67° C | 67% | 1014.4 hPa | 0 mm | - | - | - |
| 1787606555 | 26.67° C | 64% | 1014.3 hPa | 0 mm | - | - | - |
| 1787606254 | 27.22° C | 66% | 1014.2 hPa | 0 mm | - | - | - |
| 1787605954 | 27.22° C | 61% | 1014.2 hPa | 0 mm | - | - | - |
| 1787605654 | 27.78° C | 64% | 1014.2 hPa | 0 mm | - | - | - |
| 1787605354 | 28.33° C | 59% | 1014.2 hPa | 0 mm | - | - | - |
| 1787605054 | 28.33° C | 60% | 1014.2 hPa | 0 mm | - | - | - |
| 1787604754 | 27.22° C | 64% | 1014.3 hPa | 0 mm | - | - | - |
| 1787604454 | 26.11° C | 65% | 1014.2 hPa | 0 mm | - | - | - |
| 1787604153 | 25.56° C | 69% | 1014.3 hPa | 0 mm | - | - | - |
| 1787603853 | 26.11° C | 68% | 1014.3 hPa | 0 mm | - | - | - |
| 1787603553 | 26.11° C | 66% | 1014.4 hPa | 0 mm | - | - | - |
| 1787603253 | 26.11° C | 64% | 1014.2 hPa | 0 mm | - | - | - |
| 1787602953 | 26.67° C | 65% | 1014.3 hPa | 0 mm | - | - | - |
| 1787602653 | 26.67° C | 64% | 1014.2 hPa | 0 mm | - | - | - |
| 1787602353 | 26.11° C | 69% | 1014.3 hPa | 0 mm | - | - | - |
| 1787602052 | 26.11° C | 64% | 1014.3 hPa | 0 mm | - | - | - |
| 1787601752 | 26.11° C | 63% | 1014.3 hPa | 0 mm | - | - | - |
| 1787601452 | 26.67° C | 61% | 1014.3 hPa | 0 mm | - | - | - |
| 1787601152 | 26.67° C | 64% | 1014.4 hPa | 0 mm | - | - | - |
* Rain latest hour (hover to see other rain measurements)
** Current wind speed in m/s (hover to see current wind gust speed)